Regional Weather Roundup
Issued by NWS

Home | Current Version | Previous Version | Graphics & Text | Print | Product List | Glossary On
Versions: 1 2 3 4 5 6 7 8 9 10 11 12 13 14 15 16 17 18 19 20 21 22 23 24 25 26 27 28 29 30 31 32 33 34 35 36 37 38 39 40 41 42 43 44 45 46 47 48 49 50
000
ASUS43 KFSD 011302
RWRSD

WEATHER ROUNDUP FOR SOUTH DAKOTA
NATIONAL WEATHER SERVICE SIOUX FALLS SD
800 AM CDT WED APR 01 2015

NOTE: "FAIR" INDICATES FEW OR NO CLOUDS BELOW 12,000 FEET WITH NO
SIGNIFICANT WEATHER AND/OR OBSTRUCTIONS TO VISIBILITY.


SDZ001>005-009-010-012>017-011400-
NORTHWEST AND NORTH CENTRAL SOUTH DAKOTA

CITY           SKY/WX    TMP DP  RH WIND       PRES   REMARKS
BUFFALO          N/A     50  36  58 NW32G41   29.51R
FAITH            N/A     53  35  50 NW28G35   29.52R
MOBRIDGE       MOCLDY    50  30  46 S6        29.39R
$$

SDZ012>016-024>037-041>051-057-063-072>074-011400-
SOUTHWEST AND SOUTH CENTRAL SOUTH DAKOTA

CITY           SKY/WX    TMP DP  RH WIND       PRES   REMARKS
RAPID CTY ARPT PTCLDY    53  34  48 N30G40    29.58R
PIERRE         MOCLDY    55  28  35 S5        29.39F
CUSTER         PTCLDY    50  17  27 NE3       29.63R
ELLSWORTH AFB  PTCLDY    53  35  49 N26G40    29.58R
PHILIP         CLOUDY    63  24  22 W22G38    29.50R
PINE RIDGE     CLOUDY    53  23  31 W3        29.57R
SPEARFISH      FAIR      46  34  61 W15G21    29.71R
WINNER         FAIR      62  33  33 S26G35    29.49S
$$

SDZ004>011-016>023-039-040-011400-
NORTHEAST SOUTH DAKOTA

CITY           SKY/WX    TMP DP  RH WIND       PRES   REMARKS
ABERDEEN       MOCLDY    56  34  43 S23G37    29.43F
WATERTOWN      CLEAR     53  35  50 S17       29.54F
BROOKINGS      CLEAR     55  34  44 S26G32    29.61S
SISSETON         N/A     59  34  39 S21G29    29.46F
$$

SDZ017-020-022-023-036>040-048>070-011400-
SOUTHEAST SOUTH DAKOTA

CITY           SKY/WX    TMP DP  RH WIND       PRES   REMARKS
SIOUX FALLS    MOCLDY    57  33  40 S18G28    29.65S
HURON          CLOUDY    54  34  46 S15       29.49F
MITCHELL       CLOUDY    58  35  42 S14G22    29.55F
YANKTON        PTCLDY    59  37  44 S23G31    29.64F
$$

ABBREVIATIONS USED IN REMARKS
   TC - TEMPERATURE IN CELSIUS
  WCI - WIND CHILL INDEX
   HX - HEAT INDEX
  VSB - VISIBILITY



USA.gov is the U.S. government's official web portal to all federal, state and local government web resources and services.